Time,TemperatureF,DewpointF,PressureIn,WindDirection,WindDirectionDegrees,WindSpeedMPH,WindSpeedGustMPH,Humidity,HourlyPrecipIn,Conditions,Clouds,dailyrainin,SoftwareType,DateUTC
2013-02-22 00:00:00,67.0,-99.9,29.80,NE,55,13.0,14.0,-999,-99.99,,,-99.99,,2013-02-22 06:00:00,
2013-02-22 00:32:00,67.0,-99.9,29.80,NE,55,13.0,14.0,-999,-99.99,,,-99.99,,2013-02-22 06:32:00,
2013-02-22 00:42:00,67.0,-99.9,29.80,NE,55,13.0,14.0,-999,-99.99,,,-99.99,,2013-02-22 06:42:00,
2013-02-22 00:52:00,67.0,-99.9,29.80,NE,55,13.0,14.0,-999,-99.99,,,-99.99,,2013-02-22 06:52:00,
2013-02-22 01:00:00,67.0,-99.9,29.80,ENE,64,13.0,14.0,-999,-99.99,,,-99.99,,2013-02-22 07:00:00,
2013-02-22 01:32:00,67.0,-99.9,29.80,ENE,64,13.0,14.0,-999,-99.99,,,-99.99,,2013-02-22 07:32:00,
2013-02-22 01:42:00,67.0,-99.9,29.80,ENE,64,13.0,14.0,-999,-99.99,,,-99.99,,2013-02-22 07:42:00,
2013-02-22 01:52:00,67.0,-99.9,29.80,ENE,64,13.0,14.0,-999,-99.99,,,-99.99,,2013-02-22 07:52:00,
2013-02-22 02:00:00,66.0,-99.9,29.81,East,87,7.0,9.0,-999,-99.99,,,-99.99,,2013-02-22 08:00:00,
2013-02-22 02:32:00,66.0,-99.9,29.81,East,87,7.0,9.0,-999,-99.99,,,-99.99,,2013-02-22 08:32:00,
2013-02-22 02:42:00,66.0,-99.9,29.81,East,87,7.0,9.0,-999,-99.99,,,-99.99,,2013-02-22 08:42:00,
2013-02-22 02:52:00,66.0,-99.9,29.81,East,87,7.0,9.0,-999,-99.99,,,-99.99,,2013-02-22 08:52:00,
2013-02-22 03:00:00,67.0,-99.9,29.79,NE,43,11.0,13.0,-999,-99.99,,,-99.99,,2013-02-22 09:00:00,
2013-02-22 03:32:00,67.0,-99.9,29.79,NE,43,11.0,13.0,-999,-99.99,,,-99.99,,2013-02-22 09:32:00,
2013-02-22 03:42:00,67.0,-99.9,29.79,NE,43,11.0,13.0,-999,-99.99,,,-99.99,,2013-02-22 09:42:00,
2013-02-22 03:52:00,67.0,-99.9,29.79,NE,43,11.0,13.0,-999,-99.99,,,-99.99,,2013-02-22 09:52:00,
2013-02-22 04:00:00,66.0,-99.9,29.80,North,360,9.0,13.0,-999,-99.99,,,-99.99,,2013-02-22 10:00:00,
2013-02-22 04:32:00,66.0,-99.9,29.80,North,360,9.0,13.0,-999,-99.99,,,-99.99,,2013-02-22 10:32:00,
2013-02-22 04:42:00,66.0,-99.9,29.80,North,360,9.0,13.0,-999,-99.99,,,-99.99,,2013-02-22 10:42:00,
2013-02-22 04:52:00,66.0,-99.9,29.80,North,360,9.0,13.0,-999,-99.99,,,-99.99,,2013-02-22 10:52:00,
2013-02-22 05:00:00,66.0,-99.9,29.80,NNE,14,13.0,17.0,-999,-99.99,,,-99.99,,2013-02-22 11:00:00,
2013-02-22 05:32:00,66.0,-99.9,29.80,NNE,14,13.0,17.0,-999,-99.99,,,-99.99,,2013-02-22 11:32:00,
2013-02-22 05:42:00,66.0,-99.9,29.80,NNE,14,13.0,17.0,-999,-99.99,,,-99.99,,2013-02-22 11:42:00,
2013-02-22 05:52:00,66.0,-99.9,29.80,NNE,14,13.0,17.0,-999,-99.99,,,-99.99,,2013-02-22 11:52:00,
2013-02-22 06:00:00,67.0,-99.9,29.82,NNE,31,15.0,20.0,-999,-99.99,,,-99.99,,2013-02-22 12:00:00,
2013-02-22 06:32:00,67.0,-99.9,29.82,NNE,31,15.0,20.0,-999,-99.99,,,-99.99,,2013-02-22 12:32:00,
2013-02-22 06:42:00,67.0,-99.9,29.82,NNE,31,15.0,20.0,-999,-99.99,,,-99.99,,2013-02-22 12:42:00,
2013-02-22 06:52:00,67.0,-99.9,29.82,NNE,31,15.0,20.0,-999,-99.99,,,-99.99,,2013-02-22 12:52:00,
2013-02-22 07:00:00,67.0,-99.9,29.82,NNE,31,20.0,25.0,-999,-99.99,,,-99.99,,2013-02-22 13:00:00,
2013-02-22 07:32:00,67.0,-99.9,29.82,NNE,31,20.0,25.0,-999,-99.99,,,-99.99,,2013-02-22 13:32:00,
2013-02-22 07:42:00,67.0,-99.9,29.82,NNE,31,20.0,25.0,-999,-99.99,,,-99.99,,2013-02-22 13:42:00,
2013-02-22 07:52:00,67.0,-99.9,29.82,NNE,31,20.0,25.0,-999,-99.99,,,-99.99,,2013-02-22 13:52:00,
2013-02-22 08:00:00,66.0,-99.9,29.85,NE,34,21.0,27.0,-999,-99.99,,,-99.99,,2013-02-22 14:00:00,
2013-02-22 08:32:00,66.0,-99.9,29.85,NE,34,21.0,27.0,-999,-99.99,,,-99.99,,2013-02-22 14:32:00,
2013-02-22 08:42:00,66.0,-99.9,29.85,NE,34,21.0,27.0,-999,-99.99,,,-99.99,,2013-02-22 14:42:00,
2013-02-22 08:53:00,66.0,-99.9,29.85,NE,34,21.0,27.0,-999,-99.99,,,-99.99,,2013-02-22 14:53:00,
2013-02-22 09:00:00,67.0,-99.9,29.88,NE,34,21.0,28.0,-999,-99.99,,,-99.99,,2013-02-22 15:00:00,
2013-02-22 09:32:00,67.0,-99.9,29.88,NE,34,21.0,28.0,-999,-99.99,,,-99.99,,2013-02-22 15:32:00,
2013-02-22 09:42:00,67.0,-99.9,29.88,NE,34,21.0,28.0,-999,-99.99,,,-99.99,,2013-02-22 15:42:00,
2013-02-22 09:52:00,67.0,-99.9,29.88,NE,34,21.0,28.0,-999,-99.99,,,-99.99,,2013-02-22 15:52:00,
2013-02-22 10:00:00,67.0,-99.9,29.90,NNE,31,26.0,31.0,-999,-99.99,,,-99.99,,2013-02-22 16:00:00,
2013-02-22 10:32:00,67.0,-99.9,29.90,NNE,31,26.0,31.0,-999,-99.99,,,-99.99,,2013-02-22 16:32:00,
2013-02-22 10:42:00,67.0,-99.9,29.90,NNE,31,26.0,31.0,-999,-99.99,,,-99.99,,2013-02-22 16:42:00,
2013-02-22 10:52:00,67.0,-99.9,29.90,NNE,31,26.0,31.0,-999,-99.99,,,-99.99,,2013-02-22 16:52:00,
2013-02-22 11:00:00,67.0,-99.9,29.91,NE,37,26.0,32.0,-999,-99.99,,,-99.99,,2013-02-22 17:00:00,
2013-02-22 11:32:00,67.0,-99.9,29.91,NE,37,26.0,32.0,-999,-99.99,,,-99.99,,2013-02-22 17:32:00,
2013-02-22 11:42:00,67.0,-99.9,29.91,NE,37,26.0,32.0,-999,-99.99,,,-99.99,,2013-02-22 17:42:00,
2013-02-22 11:52:00,67.0,-99.9,29.91,NE,37,26.0,32.0,-999,-99.99,,,-99.99,,2013-02-22 17:52:00,
2013-02-22 12:00:00,67.0,-99.9,29.88,NNE,33,23.0,32.0,-999,-99.99,,,-99.99,,2013-02-22 18:00:00,
2013-02-22 12:32:00,67.0,-99.9,29.88,NNE,33,23.0,32.0,-999,-99.99,,,-99.99,,2013-02-22 18:32:00,
2013-02-22 12:42:00,67.0,-99.9,29.88,NNE,33,23.0,32.0,-999,-99.99,,,-99.99,,2013-02-22 18:42:00,
2013-02-22 12:52:00,67.0,-99.9,29.88,NNE,33,23.0,32.0,-999,-99.99,,,-99.99,,2013-02-22 18:52:00,
2013-02-22 13:00:00,67.0,-99.9,29.86,NE,45,23.0,31.0,-999,-99.99,,,-99.99,,2013-02-22 19:00:00,
2013-02-22 13:42:00,67.0,-99.9,29.86,NE,45,23.0,31.0,-999,-99.99,,,-99.99,,2013-02-22 19:42:00,
2013-02-22 13:52:00,67.0,-99.9,29.86,NE,45,23.0,31.0,-999,-99.99,,,-99.99,,2013-02-22 19:52:00,
2013-02-22 14:00:00,66.0,-99.9,29.84,NE,36,25.0,29.0,-999,-99.99,,,-99.99,,2013-02-22 20:00:00,
2013-02-22 14:32:00,66.0,-99.9,29.84,NE,36,25.0,29.0,-999,-99.99,,,-99.99,,2013-02-22 20:32:00,
2013-02-22 14:42:00,66.0,-99.9,29.84,NE,36,25.0,29.0,-999,-99.99,,,-99.99,,2013-02-22 20:42:00,
2013-02-22 14:52:00,66.0,-99.9,29.84,NE,36,25.0,29.0,-999,-99.99,,,-99.99,,2013-02-22 20:52:00,
2013-02-22 15:00:00,67.0,-99.9,29.83,NE,34,21.0,31.0,-999,-99.99,,,-99.99,,2013-02-22 21:00:00,
2013-02-22 15:32:00,67.0,-99.9,29.83,NE,34,21.0,31.0,-999,-99.99,,,-99.99,,2013-02-22 21:32:00,
2013-02-22 15:42:00,67.0,-99.9,29.83,NE,34,21.0,31.0,-999,-99.99,,,-99.99,,2013-02-22 21:42:00,
2013-02-22 15:52:00,67.0,-99.9,29.83,NE,34,21.0,31.0,-999,-99.99,,,-99.99,,2013-02-22 21:52:00,
2013-02-22 16:00:00,67.0,-99.9,29.82,NE,42,26.0,32.0,-999,-99.99,,,-99.99,,2013-02-22 22:00:00,
2013-02-22 16:32:00,67.0,-99.9,29.82,NE,42,26.0,32.0,-999,-99.99,,,-99.99,,2013-02-22 22:32:00,
2013-02-22 16:42:00,67.0,-99.9,29.82,NE,42,26.0,32.0,-999,-99.99,,,-99.99,,2013-02-22 22:42:00,
2013-02-22 16:52:00,67.0,-99.9,29.82,NE,42,26.0,32.0,-999,-99.99,,,-99.99,,2013-02-22 22:52:00,
2013-02-22 17:00:00,66.0,-99.9,29.83,NE,37,21.0,27.0,-999,-99.99,,,-99.99,,2013-02-22 23:00:00,
2013-02-22 17:32:00,66.0,-99.9,29.83,NE,37,21.0,27.0,-999,-99.99,,,-99.99,,2013-02-22 23:32:00,
2013-02-22 17:42:00,66.0,-99.9,29.83,NE,37,21.0,27.0,-999,-99.99,,,-99.99,,2013-02-22 23:42:00,
2013-02-22 17:52:00,66.0,-99.9,29.83,NE,37,21.0,27.0,-999,-99.99,,,-99.99,,2013-02-22 23:52:00,
2013-02-22 18:00:00,66.0,-99.9,29.83,NE,43,20.0,24.0,-999,-99.99,,,-99.99,,2013-02-23 00:00:00,
2013-02-22 18:32:00,66.0,-99.9,29.83,NE,43,20.0,24.0,-999,-99.99,,,-99.99,,2013-02-23 00:32:00,
2013-02-22 18:42:00,66.0,-99.9,29.83,NE,43,20.0,24.0,-999,-99.99,,,-99.99,,2013-02-23 00:42:00,
2013-02-22 18:52:00,66.0,-99.9,29.83,NE,43,20.0,24.0,-999,-99.99,,,-99.99,,2013-02-23 00:52:00,
2013-02-22 19:00:00,64.0,-99.9,29.86,NNE,22,14.0,17.0,-999,-99.99,,,-99.99,,2013-02-23 01:00:00,
2013-02-22 19:32:00,64.0,-99.9,29.86,NNE,22,14.0,17.0,-999,-99.99,,,-99.99,,2013-02-23 01:32:00,
2013-02-22 19:42:00,64.0,-99.9,29.86,NNE,22,14.0,17.0,-999,-99.99,,,-99.99,,2013-02-23 01:42:00,
2013-02-22 19:52:00,64.0,-99.9,29.86,NNE,22,14.0,17.0,-999,-99.99,,,-99.99,,2013-02-23 01:52:00,
2013-02-22 20:00:00,64.0,-99.9,29.89,NNE,25,13.0,17.0,-999,-99.99,,,-99.99,,2013-02-23 02:00:00,
2013-02-22 20:32:00,64.0,-99.9,29.89,NNE,25,13.0,17.0,-999,-99.99,,,-99.99,,2013-02-23 02:32:00,
2013-02-22 20:42:00,64.0,-99.9,29.89,NNE,25,13.0,17.0,-999,-99.99,,,-99.99,,2013-02-23 02:42:00,
2013-02-22 20:52:00,64.0,-99.9,29.89,NNE,25,13.0,17.0,-999,-99.99,,,-99.99,,2013-02-23 02:52:00,
2013-02-22 21:00:00,64.0,-99.9,29.90,NNE,25,17.0,20.0,-999,-99.99,,,-99.99,,2013-02-23 03:00:00,
2013-02-22 21:32:00,64.0,-99.9,29.90,NNE,25,17.0,20.0,-999,-99.99,,,-99.99,,2013-02-23 03:32:00,
2013-02-22 21:42:00,64.0,-99.9,29.90,NNE,25,17.0,20.0,-999,-99.99,,,-99.99,,2013-02-23 03:42:00,
2013-02-22 21:52:00,64.0,-99.9,29.90,NNE,25,17.0,20.0,-999,-99.99,,,-99.99,,2013-02-23 03:52:00,
2013-02-22 22:00:00,63.0,-99.9,29.90,NNE,16,19.0,24.0,-999,-99.99,,,-99.99,,2013-02-23 04:00:00,
2013-02-22 22:32:00,63.0,-99.9,29.90,NNE,16,19.0,24.0,-999,-99.99,,,-99.99,,2013-02-23 04:32:00,
2013-02-22 22:42:00,63.0,-99.9,29.90,NNE,16,19.0,24.0,-999,-99.99,,,-99.99,,2013-02-23 04:42:00,
2013-02-22 22:52:00,63.0,-99.9,29.90,NNE,16,19.0,24.0,-999,-99.99,,,-99.99,,2013-02-23 04:52:00,
2013-02-22 23:00:00,62.0,-99.9,29.91,NNE,16,19.0,23.0,-999,-99.99,,,-99.99,,2013-02-23 05:00:00,
2013-02-22 23:33:00,62.0,-99.9,29.91,NNE,16,19.0,23.0,-999,-99.99,,,-99.99,,2013-02-23 05:33:00,
2013-02-22 23:42:00,62.0,-99.9,29.91,NNE,16,19.0,23.0,-999,-99.99,,,-99.99,,2013-02-23 05:42:00,
2013-02-22 23:52:00,62.0,-99.9,29.91,NNE,16,19.0,23.0,-999,-99.99,,,-99.99,,2013-02-23 05:52:00,